SCP
9 9 7 6 7 8 9 10 12 13 14 14 13 12 11 11 10 10 13 16 17 16 14 13 12 11 9 6 5 4 3 2 2 2 2 2 2 1 1 2 2 2 1
11 9 7 7 8 8 8 9 10 11 12 12 12 12 12 11 9 9 11 13 14 14 13 11 10 9 7 5 4 3 2 2 2 2 2 2 1 1 1 1 1 1 1
12 10 8 7 7 7 7 7 8 9 9 9 10 11 12 10 8 8 9 9 9 9 10 10 9 7 5 3 3 2 2 1 2 2 2 1 1 1 1 1 1 1 1
13 11 9 6 5 5 5 6 8 9 8 8 8 10 10 9 8 8 7 6 6 6 7 8 7 6 4 3 3 2 2 1 1 1 1 1 1 1 1 1 1 1 1
14 12 8 5 4 4 5 7 9 10 9 8 8 8 8 8 8 8 7 6 5 5 5 5 5 4 3 3 2 2 2 1 1 1 1 1 1 1 1 0 0 0 0
13 11 7 4 4 4 6 8 9 9 9 10 10 8 8 7 7 6 6 6 4 4 4 4 3 3 3 2 2 2 2 2 2 1 1 1 1 1 1 0 0 0 0
10 7 5 3 3 5 7 9 8 8 9 11 11 10 8 7 6 5 6 6 4 3 3 3 3 3 3 3 3 3 2 2 2 2 1 1 1 1 1 0 0 0 0
6 5 4 3 3 6 9 9 8 7 8 10 11 10 8 6 5 5 5 5 4 3 3 3 3 3 3 3 3 3 3 2 2 2 1 1 1 1 1 1 0 0 0
4 4 4 4 4 6 9 8 6 5 7 8 9 8 6 5 5 5 4 4 3 3 3 3 3 3 3 3 3 3 3 3 2 2 2 1 1 1 1 1 0 0 0
3 4 4 4 5 6 7 6 5 5 6 6 6 5 5 5 4 4 3 3 3 3 3 2 2 2 2 3 3 3 3 3 3 2 2 1 1 1 1 1 1 0 0
3 3 4 4 5 6 6 5 4 4 5 5 5 4 4 4 4 3 2 2 2 2 2 2 2 2 2 2 3 3 2 2 2 2 2 1 1 1 1 1 1 1 0
5 4 4 4 6 6 6 5 4 4 4 4 4 4 3 3 3 2 2 2 2 2 2 2 1 1 2 2 2 2 2 2 2 2 1 1 1 1 1 1 1 1 1
8 6 5 5 6 7 6 5 4 4 3 3 3 3 3 3 2 2 2 2 2 2 2 2 1 1 1 1 2 2 2 1 1 1 1 1 2 1 1 1 1 1 1
9 8 6 6 7 7 5 4 4 3 2 2 2 2 2 2 2 2 1 1 1 1 2 2 1 1 1 1 1 1 1 1 1 1 1 1 1 1 1 1 1 1 0
9 9 8 7 7 5 5 4 3 3 2 2 2 2 2 2 2 2 1 1 1 1 2 2 1 1 1 1 1 1 1 1 1 1 1 1 1 1 1 1 1 1 0
10 10 9 7 5 4 4 3 3 2 2 2 1 1 2 2 2 1 1 1 1 1 2 2 1 1 1 0 0 0 0 0 1 1 1 0 0 0 0 0 0 0 0
9 10 9 6 4 3 3 3 2 2 2 1 1 1 1 2 1 1 1 1 1 2 2 2 1 1 1 0 0 0 0 0 0 0 0 0 0 0 0 0 0 0 0
9 9 7 5 3 3 3 3 2 1 1 1 1 1 1 1 1 1 2 1 1 1 1 1 1 1 1 0 0 0 0 0 0 0 0 0 0 0 0 0 0 0 0
7 6 5 3 2 2 3 2 2 1 1 1 1 1 1 1 1 1 1 1 1 1 1 1 1 1 1 0 0 0 0 0 1 1 1 1 0 0 0 0 0 0 0
4 3 3 2 2 2 2 2 1 1 1 1 1 1 1 1 1 1 1 1 1 1 1 1 1 1 1 0 0 0 0 0 1 1 1 1 0 0 0 0 0 0 0
2 2 2 2 2 2 2 2 1 1 1 1 1 1 1 1 1 1 1 1 1 1 1 1 1 1 1 0 0 0 0 0 0 1 1 1 0 0 0 0 0 0 0
1 1 1 1 2 2 2 2 1 1 0 0 1 1 1 1 1 1 1 1 1 1 1 1 1 1 1 1 0 0 0 0 0 0 0 0 0 0 0 0 0 0 0
1 1 1 1 1 2 2 1 1 1 1 1 1 1 1 1 1 1 1 1 1 1 1 1 1 1 1 1 0 0 0 0 0 0 0 0 0 0 0 0 0 0 0
1 1 1 1 1 1 1 1 1 1 1 1 1 1 1 1 1 1 1 1 1 0 0 0 0 0 0 0 0 0 0 0 0 0 0 1 1 1 1 1 1 1 1
1 1 1 1 1 1 1 1 1 1 1 1 0 0 1 1 1 1 1 0 0 0 0 0 0 0 0 0 0 0 0 0 0 0 0 1 1 1 1 1 1 1 1
1 1 1 1 1 1 1 1 0 0 0 0 0 0 0 0 0 0 0 0 0 0 0 0 0 0 0 0 0 0 0 0 0 0 0 0 1 1 1 1 1 1 1
Wind_Speed
7 7 6 6 6 5 5 3 4 4 3 2 2 2 2 2 2 2 2 2 1 1 1 1 0 1 0 1 2 2 3 3 2 3 4 4 5 4 2 2 2 3 3
5 6 6 6 6 6 6 4 4 4 3 2 2 1 1 1 2 1 2 2 2 1 2 1 1 0 1 1 2 2 2 3 2 2 3 3 3 2 2 2 3 3 2
6 5 5 5 5 5 6 5 5 4 3 3 2 1 1 1 1 1 1 1 1 1 1 1 1 1 1 1 2 2 3 3 3 2 2 2 2 4 2 2 2 1 1
7 6 5 5 5 5 5 5 5 4 4 3 2 2 2 1 1 0 1 1 2 2 2 2 2 2 1 1 2 1 3 4 3 2 2 2 2 2 3 3 2 2 2
7 7 6 5 5 5 4 5 5 5 4 4 3 3 2 1 0 0 1 2 2 3 2 2 2 2 1 1 3 2 3 3 3 2 2 3 2 3 3 4 4 3 2
6 6 5 5 4 4 4 4 5 4 4 4 3 3 3 2 1 1 1 2 2 2 3 2 2 2 2 2 3 3 3 3 3 3 3 3 3 3 3 4 4 4 3
6 5 4 4 4 4 4 4 5 4 4 4 4 3 3 3 3 3 2 2 2 2 2 2 2 2 2 3 3 3 3 3 3 3 3 3 3 3 3 3 4 4 4
5 4 3 3 3 3 4 4 4 3 4 4 3 3 3 2 2 3 2 2 2 2 2 2 3 3 3 4 3 3 3 3 3 5 4 3 3 3 3 3 3 4 4
4 3 3 2 2 3 4 4 4 3 3 3 3 3 3 2 2 2 2 2 1 2 2 3 3 3 4 4 3 3 3 3 3 4 4 3 3 3 3 3 3 3 4
4 3 2 2 3 4 4 4 3 3 2 1 2 2 2 2 2 2 2 2 2 2 2 4 4 3 4 4 3 3 3 3 3 3 4 4 3 3 2 3 3 3 4
3 3 3 3 4 4 4 3 3 3 2 2 2 1 1 2 2 2 2 2 2 2 3 3 3 3 4 3 2 3 4 3 4 4 4 4 4 3 3 3 3 3 3
2 3 3 3 4 4 3 2 2 3 3 2 2 2 1 1 2 2 2 2 2 3 3 3 3 4 4 3 3 4 4 3 4 4 4 4 4 4 3 3 4 3 4
2 2 3 3 3 3 2 2 1 1 2 2 2 2 1 1 2 2 3 3 3 3 3 3 3 4 4 4 3 3 3 4 4 5 4 4 4 4 3 4 4 4 4
2 2 3 2 2 2 1 1 1 1 1 1 1 1 2 2 3 3 3 3 3 3 3 3 4 4 4 3 3 3 3 4 4 5 4 4 4 4 4 4 4 4 4
2 2 2 2 2 1 1 1 1 1 1 1 1 2 2 3 3 3 3 3 3 3 2 3 4 4 3 2 3 3 5 4 5 5 5 5 5 5 5 4 3 4 3
1 1 2 2 1 1 1 0 1 1 1 1 2 2 2 2 3 3 3 3 2 3 3 3 4 3 3 2 3 4 5 5 5 5 5 5 4 5 6 7 7 7 5
1 1 2 2 1 1 1 1 1 1 1 1 2 2 2 2 3 3 2 2 2 3 3 4 3 2 1 1 3 5 5 6 6 5 4 5 4 4 4 6 8 8 9
2 2 2 2 1 1 1 0 1 1 1 1 2 2 2 2 2 2 2 2 2 3 3 4 3 2 2 2 4 6 6 6 5 5 4 4 3 4 4 5 5 4 4
3 2 2 2 2 1 1 1 1 1 1 1 2 2 2 2 2 2 2 2 3 3 4 3 2 2 2 3 4 5 5 5 5 5 4 2 2 3 4 4 4 5 4
3 2 2 2 2 1 1 1 0 1 1 1 1 1 1 3 3 2 2 3 3 3 4 3 2 2 1 3 5 5 4 5 5 4 2 2 2 3 3 3 4 5 5
3 2 2 2 2 1 1 0 0 1 1 1 1 1 1 2 2 2 2 3 3 4 4 3 3 2 2 2 4 5 3 4 5 4 3 2 2 4 5 5 4 6 6
2 2 2 2 1 1 1 1 1 1 1 1 1 1 1 3 2 2 3 3 3 3 4 3 3 1 0 1 2 3 4 5 4 4 4 3 6 7 8 6 7 9 7
1 2 2 2 2 1 1 1 1 1 1 1 2 2 2 2 2 2 2 2 2 2 3 2 2 2 2 1 2 3 5 5 3 4 6 8 10 9 7 7 8 6 4
2 2 2 2 2 1 1 1 0 1 1 1 2 2 2 2 2 1 2 2 2 2 3 3 3 3 2 2 3 3 3 5 4 4 6 8 8 6 6 6 5 4 3
2 2 2 2 2 1 1 1 1 1 1 1 2 3 3 2 1 1 1 1 2 1 1 2 2 3 3 3 4 4 4 4 5 6 4 4 4 4 3 3 3 2 2
2 2 2 2 2 1 1 1 1 1 1 1 2 2 2 2 1 0 1 2 1 1 1 1 1 1 2 4 6 7 7 6 6 4 4 4 4 5 5 4 4 4 3
Wind_Direction
150 139 141 144 146 137 130 135 144 137 144 147 164 177 180 179 170 163 146 150 157 150 228 295 202 272 282 294 302 303 299 285 279 291 298 280 259 244 236 247 242 246 255
127 136 149 149 149 147 149 155 159 155 153 153 166 182 194 204 187 173 153 166 164 184 209 187 234 274 263 268 288 286 289 295 301 293 295 294 286 305 259 229 242 244 248
136 140 146 153 153 157 165 165 161 160 158 157 155 152 166 250 222 184 176 171 181 202 221 198 221 262 262 249 274 289 296 293 290 264 266 293 302 321 294 288 280 255 250
141 148 156 167 158 164 170 163 156 159 159 160 163 189 200 209 251 250 149 202 209 211 208 202 197 233 247 254 275 280 283 275 283 286 264 258 270 280 304 300 287 278 264
152 155 158 165 163 174 174 159 152 159 163 173 175 198 212 218 203 81 169 215 217 218 208 207 207 235 239 239 261 267 270 277 287 295 292 291 285 260 267 288 294 290 276
142 145 146 150 164 170 167 158 153 163 170 178 181 196 199 196 196 239 238 247 224 211 196 198 211 234 236 243 255 256 256 261 278 286 286 289 292 290 285 286 294 296 295
127 133 143 148 155 158 160 159 156 170 174 178 185 190 191 201 212 217 234 252 245 225 194 211 219 231 241 247 251 260 260 261 271 274 277 280 282 285 287 287 295 299 296
113 119 121 128 149 154 149 150 149 159 172 178 177 184 196 212 217 219 232 244 259 251 224 229 234 238 238 250 246 256 258 260 265 274 276 274 271 276 275 273 288 296 292
116 115 120 128 134 131 130 132 131 144 161 166 170 188 198 216 232 226 241 235 246 248 236 246 244 245 245 248 251 258 263 271 266 270 276 278 282 266 269 268 262 272 289
115 117 114 117 122 120 118 120 122 131 141 161 186 200 192 209 214 228 248 254 262 268 249 255 256 257 256 251 247 264 259 259 265 265 269 274 268 276 274 269 269 264 269
97 106 114 118 117 117 120 131 140 145 155 174 167 178 204 217 218 238 245 245 255 263 263 263 256 260 261 259 255 265 270 269 276 283 284 283 280 271 267 271 272 268 268
77 102 100 100 109 115 124 133 143 150 161 173 167 174 209 220 229 257 259 255 262 263 261 263 269 270 269 265 258 265 279 281 284 283 284 286 285 279 271 270 276 274 269
99 91 103 95 98 103 117 126 134 135 143 149 162 170 203 235 247 258 265 258 261 262 268 268 268 271 274 275 273 271 280 283 284 285 285 287 282 274 273 273 278 278 280
129 98 92 96 96 115 138 149 141 131 124 129 173 194 230 249 252 254 257 263 263 258 262 267 270 273 278 285 295 301 295 289 290 292 292 286 281 278 277 275 276 285 290
104 94 105 99 95 104 135 138 159 161 149 217 242 233 238 245 252 255 257 264 265 264 264 274 275 272 273 299 323 313 298 297 296 291 289 291 286 278 268 277 285 292 290
89 89 97 97 81 84 102 144 181 172 171 241 257 254 250 264 268 260 252 255 265 276 276 276 279 285 304 342 332 310 304 295 288 289 292 293 283 281 265 261 261 260 268
35 101 107 102 102 112 141 197 195 185 200 238 263 262 257 273 284 281 279 283 284 286 286 280 279 278 301 300 304 302 294 288 286 287 287 295 305 314 298 277 263 256 252
50 82 99 106 119 138 151 177 228 230 227 236 253 258 269 289 286 282 295 304 299 290 288 283 277 267 274 265 284 296 282 280 286 283 276 280 292 306 304 295 295 280 266
70 92 119 140 145 148 164 175 244 254 211 229 258 267 292 306 304 302 311 305 295 289 284 280 278 265 255 250 266 281 286 284 285 284 286 291 300 317 315 306 302 301 294
73 98 124 131 130 138 170 189 233 256 256 259 278 292 314 311 311 322 311 305 296 291 285 283 280 270 256 235 252 271 285 295 296 291 282 292 294 299 306 301 301 300 301
87 105 116 114 120 152 167 208 238 261 280 293 297 269 285 291 292 303 292 290 291 291 287 282 275 258 234 239 255 266 280 295 305 314 319 330 329 305 291 286 275 273 288
91 105 104 96 105 139 162 154 37 339 320 339 340 332 302 304 331 304 289 286 289 295 291 284 286 288 239 266 279 280 276 289 301 309 320 332 323 302 288 279 271 279 289
83 88 95 106 102 112 122 91 27 334 334 356 350 337 326 318 304 297 303 304 299 295 306 328 347 359 23 11 343 313 308 302 292 301 307 306 300 297 289 270 268 273 270
95 105 112 111 100 89 87 79 14 345 347 349 342 322 314 307 307 297 301 311 336 355 359 8 5 11 16 14 10 345 333 327 322 320 308 301 293 285 279 284 274 255 259
101 110 101 102 108 116 98 90 46 17 4 2 337 312 304 298 305 324 332 327 17 36 11 356 355 356 357 354 337 327 329 332 342 331 310 307 314 313 311 306 301 298 302
103 114 123 120 118 111 96 81 75 62 23 335 321 310 310 302 289 324 18 58 131 128 169 220 275 339 319 312 324 326 322 322 329 329 315 323 328 336 343 343 346 349 353